Simultaneous Nadir Overpasses (SNOs) Predictions

Prediction of SNOs between NOAA-20 and LANDSAT-9 Satellite Orbit:

Table of predicted SNOs for the next 14.0 days since TLE Epoch: 6/8/2024
Index Date (NOAA-20) Time (NOAA-20) Lat,Lon (NOAA-20) SZA (NOAA-20 ) Date (LANDSAT-9) Time (LANDSAT-9) Lat,Lon (LANDSAT-9) SZA (LANDSAT-9 ) Distance(km) Time Diff (sec)
1 06/08/2024 06:19:57 70.21, 81.16 47.26 06/08/2024 06:20:37 70.23, 81.21 47.27 2.42 40
2 06/08/2024 07:10:38 -70.08,-111.32 132.88 06/08/2024 07:10:07 -70.11,-111.33 132.85 2.88 31
3 06/10/2024 21:46:16 -71.17, 28.09 131.94 06/10/2024 21:47:22 -71.09, 30.75 132.09 95.81 66
4 06/10/2024 22:36:43 70.16,-162.96 47.01 06/10/2024 22:37:04 70.17,-162.99 47.01 1.33 21
5 06/10/2024 23:27:25 -70.09, 4.47 133.08 06/10/2024 23:26:34 -70.06, 4.48 133.10 3.36 51
6 06/13/2024 14:02:50 -70.45, 145.07 132.85 06/13/2024 14:04:01 -70.40, 145.58 132.92 19.71 71
7 06/13/2024 14:53:30 70.13, -47.11 46.81 06/13/2024 14:53:31 70.13, -47.17 46.82 2.23 1
8 06/13/2024 15:44:12 -70.05, 120.33 133.27 06/13/2024 15:43:00 -70.07, 120.38 133.24 3.21 72
9 06/16/2024 06:19:33 -70.21, -98.75 133.20 06/16/2024 06:20:30 -70.20, -98.82 133.22 2.60 57
10 06/16/2024 07:10:17 70.10, 68.73 46.68 06/16/2024 07:09:57 70.09, 68.67 46.68 2.27 20
11 06/16/2024 08:00:46 -69.33,-122.82 134.12 06/16/2024 07:59:38 -69.38,-124.68 134.01 72.88 68
12 06/18/2024 22:36:20 -70.19, 17.07 133.28 06/18/2024 22:36:55 -70.18, 17.04 133.29 1.55 35
13 06/18/2024 23:27:04 70.08,-175.44 46.60 06/18/2024 23:26:22 70.07,-175.47 46.60 1.25 42
14 06/21/2024 14:02:32 70.68, -35.23 47.24 06/21/2024 14:03:42 70.61, -34.07 47.11 43.37 70
15 06/21/2024 14:53:06 -70.18, 132.89 133.30 06/21/2024 14:53:18 -70.17, 132.92 133.31 1.71 12
16 06/21/2024 15:43:50 70.07, -59.63 46.59 06/21/2024 15:42:45 70.06, -59.59 46.59 1.75 65



Historial Predications of SNOs between NOAA-20 and LANDSAT-9
